Regional Weather Roundup
Issued by NWS Midland/Odessa, TX

Skip options and go directly to product.
Home | Oldest Version | Previous Version | Current Version | All | Graphics & Text | Save Text | Print | Product List | Glossary On

Skip product version selection by date and time.   
909
ASUS44 KMAF 010602
RWRMAF
MIDLAND AREA WEATHER ROUNDUP
NATIONAL WEATHER SERVICE MIDLAND TX
100 AM CDT WED OCT 01 2014

...IN SOUTHWEST TEXAS AND SOUTHEAST NEW MEXICO...

CITY           SKY/WX    TMP DP  RH WIND       PRES   REMARKS
ALPINE         CLEAR     66  55  68 SW5       29.98F
ANDREWS        FAIR      72  63  73 S8        29.84R
ARTESIA        NOT AVBL
BIG SPRING     CLEAR     75  62  62 S14       29.83S
CARLSBAD       CLEAR     64  54  69 W7        29.82S
DRYDEN           N/A     74  66  76 NE5       29.79F
FORT STOCKTON  CLEAR     72  62  71 S14       29.82S
GUAD PASS      CLEAR     65  45  48 SW10      29.99S
HOBBS          CLEAR     64  54  68 SW6       29.85F
MARFA          CLEAR     57  52  82 CALM      29.97F
MIDLAND AIRPK  NOT AVBL
MIDLAND INTL   CLEAR     74  63  68 S10       29.82F
ODESSA         CLEAR     73  63  70 SW7       29.84S
PECOS          CLEAR     69  61  76 E6        29.79R
PRESIDIO       FAIR      76  60  57 N8        29.81S
SEMINOLE       CLEAR     68  57  69 SW8       29.85S
SNYDER         CLEAR     71  64  78 S8        29.81R
WINK           CLEAR     73  62  68 SE13      29.79F
$$
...OTHER STATIONS IN TEXAS...

CITY           SKY/WX    TMP DP  RH WIND       PRES   REMARKS
ABILENE        CLEAR     77  60  55 S12       29.78F
AMARILLO       CLEAR     59  47  64 SW7       29.80S
AUSTIN         PTCLDY    72  70  93 CALM      29.80S
BROWNSVILLE    CLEAR     76  76 100 CALM      29.80S
CORPUS CHRISTI PTCLDY    76  74  93 SE7       29.78F
DALLAS FTW     CLEAR     80  68  66 S13       29.77R
DEL RIO        CLEAR     75  67  76 SE6       29.77S
EL PASO        CLEAR     75  35  23 NW3       29.88S
HOUSTON INT    PTCLDY    75  73  93 CALM      29.80F
LUBBOCK        PTCLDY    65  55  70 S7        29.80S
SAN ANGELO     CLEAR     75  62  64 S7        29.80F
SAN ANTONIO    CLEAR     77  72  84 S9        29.82R
WACO           CLEAR     77  69  76 S12       29.78S
WICHITA FALLS  NOT AVBL
$$
...OTHER LOCATIONS IN NEW MEXICO...

CITY           SKY/WX    TMP DP  RH WIND       PRES   REMARKS
ALAMAGORDO     PTCLDY    57  43  58 S8        29.89F
ALBUQUERQUE    CLEAR     60  33  36 CALM      29.96S
CANNON AFB     CLEAR     64  46  52 W9        29.85F
CLOVIS           N/A     57  46  67 W9        29.87F
HOLLOMAN AFB   PTCLDY    64  39  39 SE7       29.87F
ROSWELL        CLEAR     64  46  52 W9        29.83S
RUIDOSO        CLEAR     55  28  35 W5        30.05S
SANTA FE       CLEAR     52  31  44 N10       29.99S
TRUTH OR CONSE CLEAR     65  35  33 NW10      29.92S
TUCUMCARI      CLEAR     62  41  46 W10       29.82R
$$

USA.gov is the U.S. government's official web portal to all federal, state and local government web resources and services.